GW6164 Weather Reports


time (UTC)temp
F
wind
direction
speed
knots
gust
knots
rain 1hr
in
rain 24hr
in
rain mn
in
humidity
%
barometer
mb
20260506231612 57 142 2.6 8.7 0.08 0.57 0.56 99 1001.1
20260506231342 58 137 1.7 8.7 0.08 0.57 0.56 100 1000.9
20260506230843 58 255 0.9 1.7 0.08 0.57 0.56 100 1000.8
20260506230113 58 126 0.0 1.7 0.08 0.57 0.56 100 1000.7
20260506225612 58 277 0.0 1.7 0.07 0.56 0.55 100 1000.5
20260506225343 58 209 0.9 2.6 0.07 0.56 0.55 100 1000.4
20260506224612 58 192 0.9 3.5 0.06 0.55 0.55 100 1000.3
20260506224110 58 225 0.0 3.5 0.06 0.55 0.54 100 1000.3
20260506223610 58 263 0.0 1.7 0.04 0.53 0.53 100 1000.4
20260506223110 59 231 0.0 1.7 0.01 0.50 0.50 100 1000.4
20260506222610 59 213 0.0 1.7 0.00 0.49 0.48 100 1000.3
20260506222110 59 160 0.0 1.7 0.00 0.49 0.48 100 1000.2
20260506221610 59 146 0.0 1.7 0.00 0.49 0.48 99 1000.2
20260506221110 59 169 0.0 4.3 0.00 0.50 0.48 99 1000.3
20260506220611 59 218 0.0 4.3 0.00 0.50 0.48 99 1000.3
20260506220109 59 108 0.0 2.6 0.00 0.50 0.48 99 1000.4
20260506215608 59 202 0.0 3.5 0.00 0.50 0.48 100 1000.3
20260506215337 59 167 0.0 3.5 0.00 0.50 0.48 99 1000.3
20260506214606 59 187 0.0 2.6 0.01 0.50 0.48 99 1000.3
20260506214337 59 269 0.0 2.6 0.01 0.50 0.48 99 1000.3
20260506213606 59 266 0.9 4.3 0.01 0.50 0.48 99 1000.3
20260506213106 59 213 0.9 4.3 0.01 0.50 0.48 99 1000.3
20260506212606 59 132 0.9 6.1 0.01 0.50 0.48 99 1000.3
20260506212106 59 146 0.9 6.1 0.01 0.50 0.48 99 1000.1
20260506211605 59 240 0.9 5.2 0.01 0.50 0.48 99 1000.3
20260506211104 59 229 0.9 7.0 0.01 0.50 0.48 100 1000.3
20260506210604 59 222 0.9 7.0 0.02 0.50 0.48 99 1000.2
20260506210104 59 270 0.9 5.2 0.02 0.50 0.48 100 1000.3
20260506205604 59 219 0.9 6.1 0.02 0.50 0.48 100 1000.3
20260506205104 59 105 1.7 7.8 0.02 0.50 0.48 100 1000.3
20260506204604 59 108 0.9 7.8 0.01 0.49 0.47 100 1000.3
20260506204104 59 41 0.9 6.1 0.01 0.49 0.47 100 1000.3
20260506203601 59 199 0.9 4.3 0.01 0.49 0.47 100 1000.4
20260506203102 59 122 0.9 4.3 0.01 0.49 0.47 100 1000.4
20260506202602 59 205 0.9 4.3 0.01 0.49 0.47 100 1000.5
20260506202100 59 337 0.9 3.5 0.01 0.49 0.47 100 1000.4
20260506201600 59 172 0.9 4.3 0.01 0.49 0.47 100 1000.5
20260506201058 59 217 0.9 4.3 0.01 0.49 0.47 100 1000.5
20260506200557 59 170 0.9 3.5 0.01 0.48 0.46 100 1000.7
20260506200058 59 213 0.9 3.5 0.01 0.48 0.46 100 1000.7
20260506195830 59 107 0.9 2.6 0.01 0.48 0.46 100 1000.7
20260506195103 59 201 0.9 3.5 0.02 0.48 0.46 100 1000.8
20260506195057 59 195 0.9 2.6 0.02 0.48 0.46 100 1000.8
20260506194058 59 142 0.9 4.3 0.03 0.48 0.46 99 1000.8
20260506193828 59 244 0.9 4.3 0.04 0.48 0.46 99 1000.9
20260506193058 59 200 0.9 4.3 0.05 0.48 0.46 99 1000.9
20260506192557 59 116 0.9 3.5 0.05 0.48 0.46 99 1001.0
20260506192328 59 159 0.0 3.5 0.07 0.48 0.46 99 1001.0
20260506191557 59 187 0.9 5.2 0.09 0.48 0.46 99 1001.1
20260506191326 59 182 1.7 6.1 0.11 0.48 0.46 99 1001.0
20260506190825 59 124 0.9 6.1 0.12 0.47 0.45 99 1001.0
20260506190325 58 123 0.9 6.1 0.14 0.47 0.45 99 1001.2
20260506185554 58 171 0.9 6.1 0.15 0.47 0.45 100 1001.2
20260506185054 58 222 0.9 4.3 0.16 0.46 0.44 99 1001.3
20260506184552 58 148 0.0 4.3 0.17 0.46 0.44 100 1001.3
20260506184051 58 116 0.0 2.6 0.17 0.45 0.43 99 1001.3
20260506183550 58 159 0.0 2.6 0.17 0.44 0.42 99 1001.4
20260506183051 58 348 0.0 2.6 0.17 0.43 0.41 99 1001.4
20260506182550 58 216 0.0 1.7 0.18 0.43 0.41 99 1001.5
20260506182047 58 147 0.0 3.5 0.17 0.41 0.39 99 1001.6
20260506181548 58 207 0.9 3.5 0.17 0.39 0.37 99 1001.9
20260506181319 58 108 0.9 4.3 0.16 0.37 0.35 99 1001.9
20260506180545 58 102 0.0 4.3 0.15 0.35 0.33 99 1002.0
20260506180046 58 220 0.9 2.6 0.15 0.33 0.31 99 1002.1
20260506175546 58 217 0.9 3.5 0.16 0.32 0.30 99 1002.1
20260506175045 58 170 0.0 4.3 0.15 0.30 0.28 99 1002.1
20260506174546 58 246 0.0 4.3 0.15 0.29 0.27 99 1002.2
20260506174043 58 196 0.0 3.5 0.15 0.28 0.26 99 1002.5
20260506173544 58 112 0.9 3.5 0.15 0.27 0.25 99 1002.7
20260506173043 58 224 0.9 2.6 0.15 0.26 0.24 99 1002.7
20260506172544 58 243 0.9 3.5 0.15 0.25 0.23 99 1002.9
20260506172043 58 237 0.9 3.5 0.15 0.24 0.22 99 1002.9
20260506171814 58 247 0.9 3.5 0.14 0.22 0.21 99 1003.1
20260506171043 58 187 0.9 5.2 0.13 0.21 0.19 99 1003.0
20260506170544 58 267 0.9 5.2 0.12 0.20 0.18 99 1003.1
20260506170314 58 217 0.9 10.4 0.11 0.18 0.16 98 1003.0
20260506165543 58 232 1.7 10.4 0.09 0.16 0.15 98 1003.1
20260506165043 58 145 1.7 6.1 0.09 0.15 0.13 98 1003.0
20260506164815 58 219 0.9 6.1 0.09 0.14 0.12 98 1003.0
20260506164652 58 205 0.9 5.2 0.08 0.13 0.11 98 1003.0
20260506163543 58 183 0.9 2.6 0.07 0.12 0.10 98 1003.0
20260506163043 59 271 0.9 2.6 0.06 0.11 0.09 98 1003.0
20260506162543 59 221 0.9 2.6 0.05 0.10 0.08 98 1003.0
20260506162044 59 191 0.0 2.6 0.05 0.09 0.07 97 1003.1
20260506161544 59 132 0.0 3.5 0.04 0.08 0.07 98 1003.2
20260506161043 59 201 0.9 3.5 0.04 0.08 0.06 97 1003.2
20260506160543 59 233 0.9 2.6 0.04 0.08 0.06 97 1003.2
20260506160044 59 173 0.9 2.6 0.04 0.07 0.05 97 1003.2
20260506155543 59 108 0.0 1.7 0.04 0.07 0.05 97 1003.3
20260506155044 59 229 0.0 1.7 0.03 0.06 0.04 97 1003.4
20260506154543 59 288 0.0 0.0 0.02 0.05 0.04 96 1003.3
20260506154044 59 173 0.0 0.0 0.02 0.05 0.03 96 1003.4
20260506153541 59 225 0.0 0.9 0.02 0.05 0.03 95 1003.4
20260506153313 59 176 0.0 1.7 0.02 0.05 0.03 95 1003.6
20260506152541 59 279 0.0 2.6 0.02 0.05 0.03 94 1003.8
20260506152041 59 198 0.0 2.6 0.01 0.04 0.02 94 1003.8
20260506151539 59 246 0.9 3.5 0.01 0.04 0.02 94 1003.8
20260506151311 59 248 0.9 3.5 0.01 0.04 0.02 93 1003.9
20260506150808 60 217 0.9 3.5 0.01 0.04 0.02 92 1003.9
20260506150033 60 215 1.7 4.3 0.00 0.03 0.01 91 1004.1
20260506145534 60 225 1.7 4.3 0.00 0.03 0.01 90 1004.2
20260506145033 60 217 1.7 6.1 0.00 0.03 0.01 89 1004.1
20260506144803 60 217 1.7 6.1 0.00 0.03 0.01 89 1004.2
20260506144029 60 317 1.7 4.3 0.00 0.03 0.01 88 1004.2
20260506143529 60 279 0.9 4.3 0.00 0.03 0.01 88 1004.1
20260506143300 60 217 0.9 2.6 0.00 0.03 0.01 88 1004.0
20260506142529 60 334 0.9 3.5 0.00 0.03 0.01 88 1004.0
20260506142030 60 297 0.0 3.5 0.00 0.03 0.01 87 1003.9
20260506141529 60 212 0.0 0.9 0.00 0.03 0.01 88 1003.8
20260506141029 60 172 0.0 0.9 0.00 0.03 0.01 87 1003.8
20260506140528 60 175 0.0 1.7 0.00 0.03 0.01 88 1003.8
20260506140028 60 209 0.0 1.7 0.00 0.03 0.01 88 1003.9
20260506135527 60 272 0.9 4.3 0.00 0.03 0.01 88 1003.8
20260506135306 60 151 0.9 3.5 0.00 0.03 0.01 88 1003.8
20260506135027 60 266 0.9 4.3 0.00 0.03 0.01 88 1003.7
20260506134027 60 234 0.9 3.5 0.00 0.03 0.01 89 1003.8
20260506133759 59 285 0.9 2.6 0.00 0.03 0.01 90 1003.8
20260506133025 58 225 0.9 2.6 0.00 0.03 0.01 91 1003.8
20260506132525 58 217 0.9 2.6 0.00 0.03 0.01 91 1003.9
20260506132025 58 222 0.9 2.6 0.00 0.03 0.01 91 1004.0
20260506131524 58 326 0.9 3.5 0.00 0.03 0.01 91 1003.9
20260506131025 57 195 0.9 3.5 0.00 0.03 0.01 92 1004.1
20260506130525 57 243 0.9 3.5 0.00 0.03 0.01 92 1004.2
20260506130025 57 197 0.9 3.5 0.00 0.03 0.01 92 1004.3
20260506125528 57 174 0.9 3.5 0.00 0.03 0.01 93 1004.5
20260506125523 57 239 0.9 3.5 0.00 0.03 0.01 93 1004.4
20260506124523 57 254 0.9 3.5 0.00 0.03 0.01 93 1004.6
20260506124254 56 258 0.9 6.1 0.00 0.03 0.01 93 1004.5
20260506123523 56 219 0.9 6.1 0.00 0.03 0.01 93 1004.5
20260506123022 56 222 0.9 5.2 0.00 0.03 0.01 94 1004.6
20260506122521 56 255 0.9 5.2 0.00 0.03 0.01 95 1004.6
20260506122022 56 253 0.9 5.2 0.00 0.03 0.01 95 1004.6
20260506121521 56 210 0.9 5.2 0.00 0.03 0.01 95 1004.6
20260506121021 55 273 0.9 6.1 0.00 0.03 0.01 95 1004.4
20260506120521 55 226 0.9 6.1 0.00 0.03 0.01 95 1003.9
20260506120021 55 238 0.9 3.5 0.00 0.03 0.01 95 1003.8
20260506115522 55 221 0.9 5.2 0.00 0.03 0.01 96 1004.2
20260506115021 55 203 0.9 5.2 0.00 0.03 0.01 96 1004.4
20260506114521 55 209 1.7 4.3 0.00 0.03 0.01 96 1004.3
20260506114021 55 208 1.7 4.3 0.00 0.03 0.01 96 1004.4
20260506113521 55 232 0.9 3.5 0.00 0.03 0.01 97 1004.5
20260506113251 54 239 0.9 4.3 0.00 0.03 0.01 97 1004.5
20260506112521 54 217 1.7 7.8 0.00 0.03 0.01 97 1004.5
20260506112021 54 223 1.7 7.8 0.00 0.03 0.01 97 1004.6
20260506111521 54 219 0.9 6.1 0.00 0.03 0.01 98 1004.5
20260506111022 54 204 0.9 6.1 0.00 0.03 0.01 99 1004.3
20260506110521 54 222 1.7 4.3 0.00 0.03 0.01 99 1004.0
20260506110021 53 239 0.9 8.7 0.00 0.03 0.01 100 1004.2
20260506105521 53 208 0.9 8.7 0.00 0.03 0.01 100 1004.2
20260506105021 53 291 0.9 3.5 0.00 0.03 0.01 100 1004.3
20260506104522 53 142 0.9 3.5 0.00 0.03 0.01 100 1004.3
20260506104022 52 235 0.9 2.6 0.00 0.03 0.01 100 1004.3
20260506103520 52 200 0.9 3.5 0.00 0.03 0.01 100 1004.3
20260506103022 51 212 0.0 3.5 0.00 0.03 0.01 100 1004.3
20260506102757 49 142 0.0 2.6 0.00 0.03 0.01 100 1004.3
20260506102521 50 255 0.0 2.6 0.00 0.03 0.01 100 1004.1
20260506101521 49 148 0.0 0.0 0.00 0.03 0.01 100 1004.1
20260506101019 48 134 0.0 0.0 0.00 0.03 0.01 100 1004.1
20260506100519 48 130 0.0 0.0 0.00 0.03 0.01 100 1004.1
20260506100019 48 100 0.0 0.0 0.00 0.03 0.01 100 1004.2
20260506095519 48 209 0.0 0.0 0.00 0.03 0.01 100 1004.1
20260506095018 49 209 0.0 0.0 0.00 0.03 0.01 100 1004.2
20260506094520 49 209 0.0 0.0 0.00 0.03 0.01 100 1004.2
20260506094019 49 209 0.0 0.0 0.00 0.03 0.01 100 1004.3
20260506093519 49 209 0.0 0.0 0.00 0.03 0.01 100 1004.2
20260506093247 49 209 0.0 0.0 0.00 0.03 0.01 100 1004.2
20260506092517 49 210 0.0 0.0 0.00 0.03 0.01 100 1004.3
20260506092017 49 210 0.0 0.0 0.00 0.03 0.01 100 1004.4
20260506091517 49 197 0.0 0.0 0.00 0.03 0.01 100 1004.4
20260506091016 50 197 0.0 0.0 0.00 0.03 0.01 100 1004.1
20260506090517 50 198 0.0 0.0 0.00 0.03 0.01 100 1004.3
20260506090017 50 199 0.0 0.0 0.00 0.03 0.01 100 1004.4
20260506085522 50 199 0.0 0.0 0.00 0.03 0.01 100 1004.2
20260506085517 50 199 0.0 0.0 0.00 0.03 0.01 100 1004.4
20260506084747 50 199 0.0 0.0 0.00 0.03 0.01 100 1004.1
20260506084017 50 199 0.0 0.0 0.00 0.03 0.01 100 1004.4
20260506083516 50 199 0.0 0.0 0.00 0.03 0.01 100 1004.4
20260506083017 50 199 0.0 0.0 0.00 0.03 0.01 100 1004.6
20260506082516 51 209 0.0 0.0 0.00 0.03 0.01 100 1004.5
20260506082017 51 209 0.0 0.0 0.00 0.03 0.01 100 1004.5
20260506081517 51 162 0.0 0.0 0.00 0.03 0.01 100 1004.5
20260506081015 50 162 0.0 0.0 0.00 0.03 0.01 100 1004.6
20260506080516 51 208 0.0 0.0 0.00 0.03 0.01 100 1004.6
20260506073512 51 208 0.0 0.0 0.00 0.03 0.01 100 1004.8
20260506073011 52 208 0.0 0.0 0.00 0.03 0.01 100 1004.8
20260506072511 52 208 0.0 0.0 0.00 0.03 0.01 100 1004.8
20260506072011 52 208 0.0 0.0 0.00 0.03 0.01 100 1004.9
20260506071508 52 208 0.0 0.0 0.00 0.03 0.01 100 1004.9
20260506071009 52 201 0.0 0.0 0.00 0.03 0.01 100 1004.9
20260506070509 52 201 0.0 0.0 0.00 0.03 0.01 100 1004.8
20260506062505 53 218 0.0 0.0 0.00 0.03 0.01 99 1004.6
20260506062004 53 218 0.0 0.0 0.00 0.03 0.01 99 1004.7
20260506061505 53 218 0.0 0.0 0.00 0.03 0.01 99 1004.7
20260506061004 54 219 0.0 0.0 0.00 0.03 0.01 99 1004.7
20260506060505 54 219 0.0 0.0 0.00 0.03 0.01 100 1004.8
20260506051001 55 175 0.0 0.0 0.01 0.03 0.01 99 1005.0
20260506050458 56 198 0.0 0.0 0.01 0.03 0.01 99 1005.0
20260506044955 56 172 0.0 0.0 0.00 0.02 0.00 99 1004.9
20260506044726 56 190 0.0 0.0 0.00 0.02 0.00 100 1005.0
20260506044600 56 201 0.0 0.0 0.00 0.02 0.00 100 1004.9
20260506043453 56 201 0.0 0.0 0.00 0.02 0.00 100 1004.9
20260506042951 56 208 0.0 0.0 0.00 0.02 0.00 100 1004.7
20260506042453 56 208 0.0 0.0 0.00 0.02 0.00 100 1004.8
20260506041952 56 163 0.0 0.0 0.00 0.02 0.00 100 1004.8
20260506041453 56 163 0.0 0.0 0.00 0.02 0.00 100 1004.9
20260506040954 56 212 0.0 0.0 0.00 0.02 0.00 100 1004.9
20260506040454 56 203 0.0 0.0 0.00 0.02 0.00 100 1004.9
20260506035951 56 196 0.0 0.0 0.00 0.02 0.02 100 1004.7
20260506035722 56 196 0.0 0.0 0.00 0.02 0.02 100 1004.6
20260506034951 56 198 0.0 0.0 0.00 0.02 0.02 100 1004.6
20260506034452 57 199 0.0 0.0 0.00 0.02 0.02 100 1004.6
20260506033951 57 199 0.0 0.0 0.00 0.02 0.02 100 1004.7
20260506033452 57 199 0.0 0.0 0.00 0.02 0.02 100 1004.7
20260506033223 57 200 0.0 0.0 0.00 0.02 0.02 100 1004.8
20260506032451 57 199 0.0 0.0 0.00 0.02 0.02 100 1004.7
20260506031952 57 200 0.0 0.0 0.00 0.02 0.02 100 1004.8
20260506031453 57 214 0.0 0.0 0.00 0.02 0.02 100 1004.9
20260506030952 57 164 0.0 0.0 0.00 0.02 0.02 99 1005.0
20260506030723 57 195 0.0 0.0 0.00 0.02 0.02 100 1005.0
20260506030222 57 207 0.0 0.0 0.00 0.02 0.02 99 1005.0
20260506025451 57 205 0.0 0.0 0.00 0.02 0.02 99 1005.0
20260506024952 57 183 0.0 0.0 0.00 0.02 0.02 99 1005.0
20260506024451 57 153 0.0 0.0 0.00 0.02 0.02 99 1004.9
20260506023951 57 154 0.0 0.0 0.00 0.02 0.02 99 1004.8
20260506023450 57 151 0.0 0.0 0.00 0.02 0.02 99 1004.7
20260506022949 57 151 0.0 0.0 0.00 0.02 0.02 99 1004.7
20260506022446 57 210 0.0 0.0 0.00 0.02 0.02 99 1004.9
20260506022217 57 210 0.0 0.0 0.00 0.02 0.02 99 1004.9
20260506021446 57 195 0.0 0.0 0.00 0.02 0.02 99 1005.0
20260506021215 57 186 0.0 0.0 0.00 0.02 0.02 99 1004.9
20260506020442 57 186 0.0 0.0 0.00 0.02 0.02 99 1004.9
20260506015942 57 186 0.0 0.0 0.00 0.02 0.02 99 1005.1
20260506015442 57 186 0.0 0.9 0.00 0.02 0.02 99 1004.9
20260506014943 57 191 0.0 0.9 0.00 0.02 0.02 99 1004.9
20260506014712 57 130 0.0 0.0 0.00 0.02 0.02 98 1004.8
20260506013938 58 162 0.0 0.0 0.00 0.02 0.02 98 1004.9
20260506013710 58 172 0.0 0.0 0.01 0.02 0.02 98 1004.8
20260506012938 58 174 0.0 0.0 0.01 0.02 0.02 98 1004.6
20260506012438 58 196 0.0 0.0 0.01 0.02 0.02 98 1004.6
20260506011938 58 212 0.0 0.9 0.01 0.02 0.02 98 1004.7
20260506011438 58 212 0.0 0.9 0.01 0.02 0.02 97 1004.5
20260506011215 58 180 0.0 0.0 0.01 0.02 0.02 96 1004.3
20260506010939 58 180 0.0 0.0 0.01 0.02 0.02 97 1004.6
20260506005938 59 180 0.0 0.0 0.01 0.02 0.02 96 1004.3
20260506005439 59 180 0.0 0.0 0.01 0.02 0.02 96 1004.4
20260506004936 59 164 0.0 0.9 0.01 0.02 0.02 95 1004.3
20260506004436 60 215 0.0 0.9 0.01 0.02 0.02 94 1004.3
20260506003936 60 152 0.9 1.7 0.01 0.02 0.02 92 1004.3
20260506003436 60 286 0.9 1.7 0.00 0.01 0.01 91 1004.3
20260506002937 60 219 0.0 0.9 0.00 0.01 0.01 91 1003.9
20260506002436 61 159 0.0 1.7 0.00 0.01 0.01 90 1003.7
20260506001937 61 159 0.0 1.7 0.00 0.01 0.01 90 1004.2
20260506001436 61 214 0.0 0.9 0.00 0.01 0.01 90 1004.1
20260506000936 61 210 0.9 1.7 0.00 0.01 0.01 89 1003.9
20260506000435 61 215 0.0 1.7 0.00 0.01 0.01 89 1003.9
20260505235936 62 175 0.0 0.9 0.00 0.01 0.01 89 1003.8
20260505235436 62 215 0.0 1.7 0.00 0.01 0.01 87 1003.7
20260505234937 62 153 0.0 1.7 0.00 0.01 0.01 88 1003.8
20260505234436 62 150 0.9 3.5 0.00 0.01 0.01 87 1003.9
20260505234206 62 196 0.9 3.5 0.00 0.01 0.01 86 1003.9
20260505233432 62 213 0.0 2.6 0.00 0.01 0.01 87 1003.8
20260505233204 62 208 0.0 2.6 0.00 0.01 0.01 87 1003.6
20260505232703 62 157 0.0 1.7 0.00 0.01 0.01 88 1003.6